This is the latest recevied weather packets stored in our database for station/object KF0ZH. If no packets are shown the sender has not sent any weather packets the latest 10 day(s).
| Time | Temp. | Humidity | Pressure | Rain* | Wind** | Luminosity | Snow |
|---|---|---|---|---|---|---|---|
| 1778059616 | 0° C | 86% | 1014.1 hPa | 0 mm | 0 m/s | - | - |
| 1778059370 | -0.56° C | 85% | 1014 hPa | 0 mm | 0 m/s | - | - |
| 1778059323 | -0.56° C | 85% | 1014 hPa | 0 mm | 0 m/s | - | - |
| 1778059016 | 0° C | 85% | 1014.1 hPa | 0 mm | 0 m/s | - | - |
| 1778058716 | 0° C | 84% | 1014.1 hPa | 0 mm | 0 m/s | - | - |
| 1778058416 | 0.56° C | 84% | 1014.1 hPa | 0 mm | 0 m/s | - | - |
| 1778058116 | 0.56° C | 84% | 1014.2 hPa | 0 mm | 0 m/s | - | - |
| 1778057816 | 0° C | 83% | 1014.1 hPa | 0 mm | 0 m/s | - | - |
| 1778057517 | 0.56° C | 83% | 1014 hPa | 0 mm | 0 m/s | - | - |
| 1778057216 | 0.56° C | 82% | 1013.9 hPa | 0 mm | 0 m/s | - | - |
| 1778056916 | 0.56° C | 81% | 1013.7 hPa | 0 mm | 0 m/s | - | - |
| 1778056616 | 0.56° C | 80% | 1013.6 hPa | 0 mm | 0 m/s | - | - |
| 1778056319 | 1.11° C | 79% | 1013.6 hPa | 0 mm | 0 m/s | - | - |
| 1778056016 | 1.11° C | 79% | 1013.5 hPa | 0 mm | 0 m/s | - | - |
| 1778055723 | 1.11° C | 78% | 1013.6 hPa | 0 mm | 0 m/s | - | - |
| 1778055416 | 1.11° C | 78% | 1013.6 hPa | 0 mm | 0 m/s | - | - |
| 1778055116 | 1.11° C | 77% | 1013.7 hPa | 0 mm | 0 m/s | - | - |
| 1778054816 | 1.67° C | 76% | 1013.8 hPa | 0 mm | 0 m/s | - | - |
| 1778054216 | 1.67° C | 75% | 1013.8 hPa | 0 mm | 0 m/s | - | - |
| 1778053916 | 2.22° C | 74% | 1013.7 hPa | 0 mm | 0 m/s | - | - |
| 1778053670 | 2.22° C | 73% | 1013.6 hPa | 0 mm | 0 m/s | - | - |
| 1778053617 | 2.22° C | 73% | 1013.6 hPa | 0 mm | 0 m/s | - | - |
| 1778053316 | 2.78° C | 73% | 1013.6 hPa | 0 mm | 0 m/s | - | - |
| 1778053016 | 2.78° C | 72% | 1013.5 hPa | 0 mm | 0 m/s | - | - |
| 1778052717 | 2.78° C | 72% | 1013.4 hPa | 0 mm | 0 m/s | - | - |
* Rain latest hour (hover to see other rain measurements)
** Current wind speed in m/s (hover to see current wind gust speed)